EFW9SA EGKK-EGJJ

Flight info

Callsign EFW9SA
Flight time 0h 52m
Altitude 26000
Route IMVUR N63 LELNA
Aircraft A319/M-SDE3FGHIRWY/LB1

Departure

Time 2026-04-30 08:55
Airport London Gatwick Airport (EGKK)

Arrival

Time 2026-04-30 09:48
Airport Jersey Airport (EGJJ)
Time Latitude Longitude Altitude Speed Heading
2026-04-30 08:31 51.15600 -0.17562 204 ft 0 kts 329°
2026-04-30 08:40 51.15598 -0.17561 204 ft 2 kts 329°
2026-04-30 08:40 51.15576 -0.17544 206 ft 4 kts 346°
2026-04-30 08:40 51.15555 -0.17536 214 ft 4 kts 347°
2026-04-30 08:40 51.15549 -0.17533 212 ft 0 kts 347°
2026-04-30 08:44 51.15554 -0.17544 213 ft 2 kts 306°
2026-04-30 08:44 51.15553 -0.17580 209 ft 5 kts 249°
2026-04-30 08:45 51.15527 -0.17636 212 ft 8 kts 236°
2026-04-30 08:45 51.15506 -0.17735 208 ft 11 kts 256°
2026-04-30 08:45 51.15485 -0.17870 211 ft 14 kts 256°
2026-04-30 08:45 51.15462 -0.18035 204 ft 12 kts 259°
2026-04-30 08:46 51.15458 -0.18070 210 ft 3 kts 259°
2026-04-30 08:46 51.15451 -0.18122 207 ft 7 kts 259°
2026-04-30 08:46 51.15440 -0.18215 204 ft 10 kts 259°
2026-04-30 08:46 51.15398 -0.18275 204 ft 9 kts 171°
2026-04-30 08:47 51.15324 -0.18256 204 ft 12 kts 168°
2026-04-30 08:47 51.15230 -0.18219 204 ft 12 kts 165°
2026-04-30 08:47 51.15188 -0.18256 204 ft 8 kts 253°
2026-04-30 08:47 51.15180 -0.18362 204 ft 11 kts 264°
2026-04-30 08:48 51.15164 -0.18490 204 ft 12 kts 255°
2026-04-30 08:48 51.15139 -0.18635 206 ft 15 kts 255°
2026-04-30 08:48 51.15119 -0.18813 203 ft 18 kts 258°
2026-04-30 08:48 51.15093 -0.19007 204 ft 19 kts 257°
2026-04-30 08:49 51.15063 -0.19217 204 ft 19 kts 258°
2026-04-30 08:49 51.15034 -0.19432 204 ft 21 kts 257°
2026-04-30 08:49 51.15002 -0.19664 210 ft 21 kts 257°
2026-04-30 08:49 51.14968 -0.19904 209 ft 23 kts 257°
2026-04-30 08:50 51.14936 -0.20129 207 ft 21 kts 257°
2026-04-30 08:50 51.14904 -0.20362 203 ft 18 kts 257°
2026-04-30 08:50 51.14880 -0.20531 212 ft 15 kts 257°
2026-04-30 08:50 51.14856 -0.20705 203 ft 17 kts 258°
2026-04-30 08:51 51.14830 -0.20904 204 ft 19 kts 258°
2026-04-30 08:51 51.14809 -0.21068 210 ft 15 kts 258°
2026-04-30 08:51 51.14787 -0.21196 204 ft 7 kts 253°
2026-04-30 08:51 51.14786 -0.21199 204 ft 0 kts 253°
2026-04-30 08:52 51.14786 -0.21200 204 ft 1 kts 253°
2026-04-30 08:52 51.14779 -0.21232 209 ft 5 kts 251°
2026-04-30 08:52 51.14765 -0.21305 211 ft 9 kts 257°
2026-04-30 08:52 51.14736 -0.21397 207 ft 10 kts 206°
2026-04-30 08:53 51.14676 -0.21383 208 ft 9 kts 158°
2026-04-30 08:53 51.14611 -0.21325 204 ft 13 kts 158°
2026-04-30 08:53 51.14527 -0.21254 202 ft 16 kts 132°
2026-04-30 08:53 51.14527 -0.21100 209 ft 14 kts 70°
2026-04-30 08:54 51.14541 -0.21029 209 ft 0 kts 77°
2026-04-30 08:54 51.14563 -0.20877 204 ft 40 kts 77°
2026-04-30 08:54 51.14665 -0.20142 208 ft 97 kts 78°
2026-04-30 08:55 51.14841 -0.18805 205 ft 148 kts 78°
2026-04-30 08:55 51.15073 -0.17138 722 ft 155 kts 79°
2026-04-30 08:55 51.15306 -0.15455 1448 ft 162 kts 83°
2026-04-30 08:55 51.15556 -0.13587 1866 ft 183 kts 84°
2026-04-30 08:56 51.15831 -0.11524 2376 ft 198 kts 84°
2026-04-30 08:56 51.16131 -0.09324 3229 ft 203 kts 83°
2026-04-30 08:56 51.16458 -0.07084 3811 ft 211 kts 77°
2026-04-30 08:56 51.17357 -0.05196 3993 ft 229 kts 38°
2026-04-30 08:57 51.18976 -0.04652 4616 ft 251 kts
2026-04-30 08:57 51.20723 -0.05075 5459 ft 261 kts 346°
2026-04-30 08:57 51.22239 -0.06715 6308 ft 269 kts 306°
2026-04-30 08:57 51.22948 -0.09487 6935 ft 282 kts 271°
2026-04-30 08:58 51.22835 -0.12675 7561 ft 292 kts 256°
2026-04-30 08:58 51.22438 -0.15871 8419 ft 296 kts 252°
2026-04-30 08:58 51.21956 -0.19072 9326 ft 299 kts 251°
2026-04-30 08:58 51.21466 -0.22319 10241 ft 303 kts 252°
2026-04-30 08:59 51.21001 -0.25620 11044 ft 307 kts 253°
2026-04-30 08:59 51.20566 -0.28943 11851 ft 311 kts 255°
2026-04-30 08:59 51.20142 -0.32382 12655 ft 315 kts 255°
2026-04-30 08:59 51.19730 -0.35810 13425 ft 320 kts 255°
2026-04-30 09:00 51.19288 -0.39320 14205 ft 323 kts 255°
2026-04-30 09:00 51.18829 -0.42844 14892 ft 326 kts 255°
2026-04-30 09:00 51.18362 -0.46400 15594 ft 329 kts 254°
2026-04-30 09:00 51.17897 -0.49924 16266 ft 333 kts 254°
2026-04-30 09:01 51.17350 -0.53529 16918 ft 335 kts 247°
2026-04-30 09:01 51.16491 -0.57003 17108 ft 353 kts 243°
2026-04-30 09:01 51.15488 -0.60761 17259 ft 373 kts 242°
2026-04-30 09:01 51.14451 -0.64606 17677 ft 382 kts 242°
2026-04-30 09:02 51.12338 -0.72484 18873 ft 391 kts 242°
2026-04-30 09:02 51.11264 -0.76493 19421 ft 394 kts 242°
2026-04-30 09:02 51.10193 -0.80487 19970 ft 398 kts 242°
2026-04-30 09:03 51.09095 -0.84575 20538 ft 401 kts 242°
2026-04-30 09:03 51.08000 -0.88646 21078 ft 405 kts 242°
2026-04-30 09:03 51.06883 -0.92786 21630 ft 408 kts 242°
2026-04-30 09:03 51.05756 -0.96961 22178 ft 412 kts 242°
2026-04-30 09:04 51.04617 -1.01168 22722 ft 415 kts 242°
2026-04-30 09:04 51.03470 -1.05402 23227 ft 419 kts 242°
2026-04-30 09:04 51.02315 -1.09662 23737 ft 422 kts 242°
2026-04-30 09:04 51.01148 -1.13948 24169 ft 425 kts 242°
2026-04-30 09:05 50.99975 -1.18251 24606 ft 427 kts 242°
2026-04-30 09:05 50.98786 -1.22601 25047 ft 429 kts 242°
2026-04-30 09:05 50.97563 -1.26932 25479 ft 429 kts 237°
2026-04-30 09:05 50.95998 -1.30923 25897 ft 425 kts 227°
2026-04-30 09:06 50.94051 -1.34405 26137 ft 419 kts 218°
2026-04-30 09:06 50.91825 -1.37242 26188 ft 403 kts 208°
2026-04-30 09:06 50.89425 -1.39402 26194 ft 393 kts 201°
2026-04-30 09:06 50.86983 -1.41325 26208 ft 391 kts 201°
2026-04-30 09:07 50.84549 -1.43259 26194 ft 390 kts 201°
2026-04-30 09:07 50.82125 -1.45189 26200 ft 390 kts 201°
2026-04-30 09:07 50.79710 -1.47114 26199 ft 390 kts 201°
2026-04-30 09:07 50.77283 -1.49047 26198 ft 390 kts 201°
2026-04-30 09:08 50.74887 -1.50952 26193 ft 389 kts 201°
2026-04-30 09:08 50.72466 -1.52875 26195 ft 389 kts 201°
2026-04-30 09:08 50.70045 -1.54791 26198 ft 389 kts 201°
2026-04-30 09:08 50.67621 -1.56702 26191 ft 389 kts 201°
2026-04-30 09:09 50.65196 -1.58616 26192 ft 389 kts 201°
2026-04-30 09:09 50.62776 -1.60527 26202 ft 389 kts 201°
2026-04-30 09:09 50.60352 -1.62438 26195 ft 390 kts 201°
2026-04-30 09:09 50.57929 -1.64345 26186 ft 390 kts 201°
2026-04-30 09:10 50.55504 -1.66253 26173 ft 390 kts 201°
2026-04-30 09:10 50.53076 -1.68159 26168 ft 390 kts 201°
2026-04-30 09:10 50.50643 -1.70065 26168 ft 390 kts 201°
2026-04-30 09:10 50.48211 -1.71968 26163 ft 391 kts 201°
2026-04-30 09:11 50.45780 -1.73871 26163 ft 391 kts 201°
2026-04-30 09:11 50.43346 -1.75772 26164 ft 391 kts 201°
2026-04-30 09:11 50.40921 -1.77664 26173 ft 391 kts 201°
2026-04-30 09:11 50.38484 -1.79569 26162 ft 391 kts 202°
2026-04-30 09:12 50.36045 -1.81478 26157 ft 391 kts 202°
2026-04-30 09:12 50.33608 -1.83381 26154 ft 392 kts 201°
2026-04-30 09:12 50.31167 -1.85280 26152 ft 392 kts 202°
2026-04-30 09:12 50.28723 -1.87178 26150 ft 392 kts 202°
2026-04-30 09:13 50.26312 -1.89046 26145 ft 392 kts 202°
2026-04-30 09:13 50.23833 -1.90963 26145 ft 392 kts 202°
2026-04-30 09:13 50.21389 -1.92854 26140 ft 392 kts 202°
2026-04-30 09:13 50.18976 -1.94718 26140 ft 392 kts 202°
2026-04-30 09:14 50.16532 -1.96604 26147 ft 392 kts 202°
2026-04-30 09:14 50.14085 -1.98494 26015 ft 394 kts 202°
2026-04-30 09:14 50.11644 -2.00379 25745 ft 389 kts 202°
2026-04-30 09:14 50.09217 -2.02252 25309 ft 386 kts 202°
2026-04-30 09:15 50.06817 -2.04097 24868 ft 383 kts 201°
2026-04-30 09:15 50.04437 -2.05923 24441 ft 381 kts 201°
2026-04-30 09:15 50.02064 -2.07739 24015 ft 378 kts 201°
2026-04-30 09:15 49.99716 -2.09531 23570 ft 375 kts 200°
2026-04-30 09:16 49.97305 -2.10947 23113 ft 365 kts 190°
2026-04-30 09:16 49.94850 -2.11812 22713 ft 358 kts 188°
2026-04-30 09:16 49.92430 -2.12634 22273 ft 354 kts 188°
2026-04-30 09:16 49.90040 -2.13450 21825 ft 350 kts 188°
2026-04-30 09:17 49.87682 -2.14254 21402 ft 345 kts 188°
2026-04-30 09:17 49.86136 -2.14781 21101 ft 342 kts 188°
2026-04-30 09:17 49.83815 -2.15571 20687 ft 339 kts 188°
2026-04-30 09:17 49.81530 -2.16351 20257 ft 336 kts 187°
2026-04-30 09:18 49.79259 -2.17129 19821 ft 333 kts 187°
2026-04-30 09:18 49.77008 -2.17897 19394 ft 330 kts 187°
2026-04-30 09:18 49.74048 -2.18900 18819 ft 327 kts 187°
2026-04-30 09:18 49.72551 -2.19409 18531 ft 326 kts 187°
2026-04-30 09:19 49.70341 -2.20172 18041 ft 325 kts 188°
2026-04-30 09:19 49.68158 -2.21054 17570 ft 324 kts 190°
2026-04-30 09:19 49.65997 -2.22021 17110 ft 322 kts 191°
2026-04-30 09:19 49.63863 -2.23012 16654 ft 320 kts 192°
2026-04-30 09:20 49.61737 -2.24002 16198 ft 318 kts 192°
2026-04-30 09:20 49.59623 -2.24979 15757 ft 316 kts 192°
2026-04-30 09:20 49.57515 -2.25940 15294 ft 315 kts 192°
2026-04-30 09:20 49.55417 -2.26884 14841 ft 314 kts 192°
2026-04-30 09:21 49.53326 -2.27817 14393 ft 312 kts 192°
2026-04-30 09:21 49.51245 -2.28740 13945 ft 311 kts 192°
2026-04-30 09:21 49.49164 -2.29660 13459 ft 310 kts 192°
2026-04-30 09:21 49.47097 -2.30574 13005 ft 308 kts 192°
2026-04-30 09:22 49.45073 -2.31468 12567 ft 305 kts 192°
2026-04-30 09:22 49.43011 -2.32379 12118 ft 303 kts 192°
2026-04-30 09:22 49.40990 -2.33270 11675 ft 302 kts 192°
2026-04-30 09:22 49.38978 -2.34158 11247 ft 300 kts 192°
2026-04-30 09:23 49.37005 -2.35030 10822 ft 298 kts 192°
2026-04-30 09:23 49.35014 -2.35906 10432 ft 296 kts 192°
2026-04-30 09:23 49.33073 -2.36761 10310 ft 284 kts 192°
2026-04-30 09:23 49.31202 -2.37585 10107 ft 277 kts 191°
2026-04-30 09:24 49.29364 -2.38390 10041 ft 274 kts 191°
2026-04-30 09:24 49.27527 -2.39191 9638 ft 279 kts 192°
2026-04-30 09:24 49.25663 -2.40004 9314 ft 275 kts 191°
2026-04-30 09:24 49.23792 -2.40261 8944 ft 267 kts 170°
2026-04-30 09:25 49.22055 -2.39388 8567 ft 262 kts 149°
2026-04-30 09:25 49.20697 -2.37625 7775 ft 256 kts 129°
2026-04-30 09:25 49.19902 -2.35197 6856 ft 259 kts 108°
2026-04-30 09:25 49.19768 -2.32464 6112 ft 261 kts 91°
2026-04-30 09:26 49.19620 -2.29747 5396 ft 253 kts 112°
2026-04-30 09:26 49.18691 -2.27551 4707 ft 246 kts 137°
2026-04-30 09:26 49.17366 -2.25908 4033 ft 244 kts 152°
2026-04-30 09:26 49.15765 -2.25400 3798 ft 231 kts 184°
2026-04-30 09:27 49.14324 -2.26250 3667 ft 218 kts 210°
2026-04-30 09:27 49.13128 -2.27575 3403 ft 208 kts 213°
2026-04-30 09:27 49.11994 -2.28924 2970 ft 207 kts 217°
2026-04-30 09:27 49.11232 -2.30781 2508 ft 213 kts 255°
2026-04-30 09:28 49.11375 -2.32921 2410 ft 198 kts 291°
2026-04-30 09:28 49.12204 -2.34485 2261 ft 184 kts 323°
2026-04-30 09:28 49.13217 -2.35533 2135 ft 169 kts 326°
2026-04-30 09:28 49.14167 -2.36522 2061 ft 163 kts 326°
2026-04-30 09:29 49.15072 -2.37469 2002 ft 154 kts 327°
2026-04-30 09:29 49.15955 -2.38356 2005 ft 151 kts 334°
2026-04-30 09:29 49.16951 -2.38752 2010 ft 148 kts
2026-04-30 09:29 49.17944 -2.38494 2021 ft 143 kts 28°
2026-04-30 09:30 49.18754 -2.37683 2018 ft 137 kts 52°
2026-04-30 09:30 49.19274 -2.36514 2021 ft 130 kts 74°
2026-04-30 09:30 49.19473 -2.35223 2005 ft 126 kts 89°
2026-04-30 09:30 49.19588 -2.33879 1919 ft 126 kts 89°
2026-04-30 09:31 49.19702 -2.32545 1792 ft 126 kts 89°
2026-04-30 09:31 49.19813 -2.31237 1640 ft 126 kts 89°
2026-04-30 09:31 49.19924 -2.29904 1466 ft 126 kts 89°
2026-04-30 09:31 49.20036 -2.28572 1297 ft 126 kts 88°
2026-04-30 09:32 49.20149 -2.27262 1151 ft 123 kts 90°
2026-04-30 09:32 49.20255 -2.25975 988 ft 121 kts 88°
2026-04-30 09:32 49.20364 -2.24708 827 ft 119 kts 89°
2026-04-30 09:32 49.20465 -2.23477 687 ft 116 kts 87°
2026-04-30 09:33 49.20574 -2.22246 529 ft 116 kts 86°
2026-04-30 09:33 49.20677 -2.21021 369 ft 116 kts 86°
2026-04-30 09:33 49.20772 -2.19825 330 ft 110 kts 88°
2026-04-30 09:33 49.20840 -2.18674 858 ft 111 kts 89°
2026-04-30 09:34 49.20944 -2.17425 1300 ft 126 kts 87°
2026-04-30 09:34 49.21080 -2.16072 1681 ft 135 kts 87°
2026-04-30 09:34 49.21218 -2.14513 1762 ft 160 kts 88°
2026-04-30 09:34 49.21348 -2.12694 1967 ft 185 kts 88°
2026-04-30 09:35 49.21482 -2.10641 1999 ft 199 kts 88°
2026-04-30 09:35 49.21623 -2.08521 1992 ft 201 kts 88°
2026-04-30 09:35 49.21721 -2.06383 1985 ft 199 kts 97°
2026-04-30 09:35 49.21160 -2.04535 2109 ft 194 kts 136°
2026-04-30 09:36 49.19955 -2.03680 2405 ft 197 kts 172°
2026-04-30 09:36 49.18580 -2.03650 2772 ft 198 kts 180°
2026-04-30 09:36 49.17201 -2.03717 2975 ft 198 kts 181°
2026-04-30 09:36 49.15823 -2.03797 3008 ft 198 kts 181°
2026-04-30 09:37 49.14467 -2.04146 2955 ft 199 kts 200°
2026-04-30 09:37 49.13392 -2.05461 2546 ft 204 kts 232°
2026-04-30 09:37 49.12956 -2.07525 2108 ft 211 kts 266°
2026-04-30 09:37 49.13256 -2.09695 2023 ft 215 kts 283°
2026-04-30 09:38 49.13661 -2.11890 2009 ft 215 kts 283°
2026-04-30 09:38 49.14058 -2.14082 2005 ft 209 kts 283°
2026-04-30 09:38 49.14426 -2.16118 2004 ft 188 kts 282°
2026-04-30 09:38 49.14755 -2.17941 1997 ft 168 kts 282°
2026-04-30 09:39 49.15052 -2.19597 2006 ft 159 kts 282°
2026-04-30 09:39 49.15341 -2.21220 2017 ft 157 kts 282°
2026-04-30 09:39 49.15627 -2.22824 2019 ft 156 kts 282°
2026-04-30 09:39 49.15910 -2.24422 2011 ft 156 kts 281°
2026-04-30 09:40 49.16192 -2.26014 2014 ft 155 kts 281°
2026-04-30 09:40 49.16476 -2.27616 2013 ft 157 kts 282°
2026-04-30 09:40 49.16762 -2.29225 2017 ft 157 kts 282°
2026-04-30 09:40 49.17048 -2.30831 2009 ft 157 kts 282°
2026-04-30 09:41 49.17334 -2.32446 2004 ft 158 kts 282°
2026-04-30 09:41 49.17622 -2.34069 2010 ft 158 kts 282°
2026-04-30 09:41 49.17908 -2.35685 2016 ft 154 kts 282°
2026-04-30 09:41 49.18184 -2.37231 2008 ft 148 kts 282°
2026-04-30 09:42 49.18453 -2.38739 2014 ft 146 kts 281°
2026-04-30 09:42 49.18719 -2.40229 2018 ft 146 kts 281°
2026-04-30 09:42 49.18987 -2.41744 2017 ft 148 kts 281°
2026-04-30 09:42 49.19548 -2.43055 1948 ft 154 kts 334°
2026-04-30 09:43 49.20557 -2.43185 2150 ft 145 kts 23°
2026-04-30 09:43 49.21328 -2.42292 2119 ft 136 kts 65°
2026-04-30 09:43 49.21437 -2.40967 1939 ft 124 kts 110°
2026-04-30 09:43 49.21082 -2.39820 1900 ft 119 kts 117°
2026-04-30 09:44 49.20763 -2.38646 1954 ft 119 kts 115°
2026-04-30 09:44 49.20441 -2.37461 1981 ft 119 kts 115°
2026-04-30 09:44 49.20126 -2.36302 1994 ft 120 kts 115°
2026-04-30 09:44 49.19904 -2.35067 1988 ft 122 kts 103°
2026-04-30 09:45 49.19825 -2.33750 1892 ft 123 kts 96°
2026-04-30 09:45 49.19832 -2.32455 1774 ft 124 kts 92°
2026-04-30 09:45 49.19887 -2.31134 1621 ft 125 kts 90°
2026-04-30 09:45 49.19968 -2.29811 1461 ft 125 kts 89°
2026-04-30 09:46 49.20063 -2.28495 1299 ft 123 kts 88°
2026-04-30 09:46 49.20163 -2.27205 1137 ft 122 kts 88°
2026-04-30 09:46 49.20267 -2.25927 984 ft 120 kts 88°
2026-04-30 09:46 49.20367 -2.24680 837 ft 116 kts 86°
2026-04-30 09:47 49.20468 -2.23457 676 ft 116 kts 86°
2026-04-30 09:47 49.20571 -2.22237 531 ft 115 kts 85°
2026-04-30 09:47 49.20675 -2.21016 343 ft 118 kts 85°
2026-04-30 09:47 49.20762 -2.19918 281 ft 67 kts 83°
2026-04-30 09:48 49.20815 -2.19282 283 ft 49 kts 83°
2026-04-30 09:48 49.20753 -2.18919 284 ft 23 kts 113°
2026-04-30 09:48 49.20709 -2.18874 282 ft 9 kts 238°
2026-04-30 09:48 49.20693 -2.18980 282 ft 12 kts 264°
2026-04-30 09:49 49.20683 -2.19122 282 ft 15 kts 263°
2026-04-30 09:49 49.20676 -2.19289 281 ft 17 kts 276°
2026-04-30 09:49 49.20686 -2.19360 281 ft 15 kts 283°